Hourly Data Report for July 28, 2021

CAMPBELL RIVER A
BRITISH COLUMBIA
Current Station Operator: NAVCAN

49°57'07.000" N
125°16'23.000" W
108.80 m
1021270
YBL

Download Data

Hourly Data (July 2021)
Hourly Data Report for July 28, 2021
TIME
LST
Temp Definition
°C
Dew Point Definition
°C
Rel Hum Definition
%
Precip. Amount Definition
mm

Wind Dir Definition
10's deg

Wind Spd Definition
km/h
Visibility Definition
km
Stn Press Definition
kPa
Hmdx Definition


Wind Chill Definition


Weather Definition


00:00 15.7 7.2 57 LegendMM 32 11 LegendMM 100.61     LegendNANA
01:00 16.6 7.1 53 LegendMM 33 10 LegendMM 100.63     LegendNANA
02:00 14.6 7.4 61 LegendMM 31 8 LegendMM 100.66     LegendNANA
03:00 15.6 8.7 63 LegendMM 30 11 LegendMM 100.71     LegendNANA
04:00 15.8 7.6 58 LegendMM 29 12 LegendMM 100.71     LegendNANA
05:00 13.7 8.2 69 LegendMM 30 8 LegendMM 100.75     LegendNANA
06:00 15.2 9.8 70 LegendMM 29 4 LegendMM 100.77     LegendNANA
07:00 18.9 9.1 53 LegendMM 34 7 LegendMM 100.82     LegendNANA
08:00 21.2 9.7 47 LegendMM 36 7 LegendMM 100.82     LegendNANA
09:00 22.9 10.2 44 LegendMM 10 10 LegendMM 100.83     LegendNANA
10:00 24.9 9.8 38 LegendMM 9 10 LegendMM 100.79 26   LegendNANA
11:00 26.5 10.0 35 LegendMM 10 5 LegendMM 100.76 28   LegendNANA
12:00 27.1 9.9 34 LegendMM 5 8 LegendMM 100.72 28   LegendNANA
13:00 29.1 9.8 29 LegendMM 6 8 LegendMM 100.67 30   LegendNANA
14:00 30.2 9.2 26 LegendMM 9 12 LegendMM 100.63 31   LegendNANA
15:00 30.3 9.4 27 LegendMM 11 10 LegendMM 100.57 31   LegendNANA
16:00 31.2 9.3 25 LegendMM 12 12 LegendMM 100.51 32   LegendNANA
17:00 30.8 9.4 26 LegendMM 12 7 LegendMM 100.46 32   LegendNANA
18:00 30.9 9.3 26 LegendMM 6 9 LegendMM 100.42 32   LegendNANA
19:00 30.1 10.4 29 LegendMM 34 9 LegendMM 100.41 32   LegendNANA
20:00 25.4 11.6 42 LegendMM 29 11 LegendMM 100.44 27   LegendNANA
21:00 24.2 11.7 45 LegendMM 29 10 LegendMM 100.48 26   LegendNANA
22:00 23.4 11.7 47 LegendMM 29 13 LegendMM 100.49 26   LegendNANA
23:00 21.6 11.7 53 LegendMM 31 16 LegendMM 100.50     LegendNANA

Notes on Data Quality.

Legend

  • E = Estimated
  • M = Missing
  • NA = Not Available*
  • [empty] = Indicates an unobserved value
Date modified: